W2GR Weather Reports


Display with metric or nautical units.
time (UTC)temp
F
wind
direction
speed
MPH
gust
MPH
rain 1hr
in
rain 24hr
in
rain mn
in
humidity
%
barometer
mb
20260509210044 61 205 2.0 8.0 0.00 0.00 0.00 70 1001.6
20260509204544 61 172 3.0 8.0 0.00 0.00 0.00 68 1002.0
20260509204541 61 190 3.0 8.0 0.00 0.00 0.00 68 1002.0
20260509203100 61 205 4.0 13.0 0.00 0.00 0.00 68 1002.2
20260509201540 62 204 3.0 11.0 0.00 0.00 0.00 68 1002.0
20260509200009 62 196 4.0 13.0 0.00 0.00 0.00 67 1002.2
20260509194506 62 219 8.0 14.0 0.00 0.00 0.00 66 1002.4
20260509193004 62 231 5.0 15.0 0.00 0.00 0.00 67 1002.4
20260509191501 62 187 7.0 16.0 0.00 0.00 0.00 67 1002.8
20260509190106 62 245 4.0 16.0 0.00 0.00 0.00 68 1003.1
20260509184601 62 221 6.0 12.0 0.00 0.00 0.00 67 1003.0
20260509183055 62 212 7.0 16.0 0.00 0.00 0.00 65 1003.3
20260509181559 62 209 5.0 15.0 0.00 0.00 0.00 67 1003.3
20260509180056 62 204 7.0 15.0 0.00 0.00 0.00 69 1003.4
20260509174548 60 245 5.0 14.0 0.00 0.00 0.00 70 1003.4
20260509173043 60 148 4.0 12.0 0.00 0.00 0.00 70 1003.9
20260509171542 60 227 7.0 16.0 0.00 0.00 0.00 71 1004.4
20260509170040 60 229 5.0 15.0 0.00 0.00 0.00 71 1004.4
20260509164539 60 203 4.0 16.0 0.00 0.00 0.00 70 1004.2
20260509163033 59 214 7.0 13.0 0.00 0.00 0.00 71 1004.5
20260509161535 59 226 4.0 13.0 0.00 0.00 0.00 71 1004.7
20260509160032 59 226 7.0 15.0 0.00 0.00 0.00 72 1004.8
20260509154531 59 252 4.0 12.0 0.00 0.00 0.00 73 1004.6
20260509153026 59 252 4.0 10.0 0.00 0.00 0.00 73 1004.7
20260509151524 58 220 2.0 6.0 0.00 0.00 0.00 75 1004.7
20260509150021 57 239 2.0 10.0 0.00 0.01 0.00 76 1004.9
20260509144529 57 195 5.0 9.0 0.00 0.01 0.00 77 1005.0
20260509143051 57 189 4.0 9.0 0.00 0.01 0.00 78 1005.0
20260509141545 57 155 4.0 9.0 0.00 0.01 0.00 80 1005.1
20260509140042 56 191 4.0 9.0 0.00 0.01 0.00 82 1005.2
20260509134537 55 206 2.0 8.0 0.00 0.01 0.00 83 1005.5
20260509133036 55 181 4.0 11.0 0.00 0.01 0.00 83 1005.6
20260509131534 55 193 4.0 9.0 0.00 0.01 0.00 82 1005.6
20260509130049 54 228 4.0 10.0 0.00 0.01 0.00 84 1005.6
20260509124538 53 201 2.0 10.0 0.00 0.01 0.00 85 1005.5
20260509123030 52 184 3.0 10.0 0.00 0.01 0.00 87 1005.6
20260509121529 51 153 3.0 6.0 0.00 0.01 0.00 88 1005.9
20260509120031 50 208 2.0 7.0 0.00 0.01 0.00 88 1005.9
20260509114525 49 141 2.0 5.0 0.00 0.01 0.00 90 1005.9
20260509113023 48 175 1.0 4.0 0.00 0.01 0.00 90 1005.9
20260509111522 46 155 2.0 6.0 0.00 0.01 0.00 90 1005.8
20260509110021 45 196 1.0 3.0 0.00 0.01 0.00 90 1005.9
20260509104515 0 0.0 0.0 0.00 0.01 0.00 1005.9
20260509103016 0 0.0 0.0 0.00 0.01 0.00 1006.1
20260509101508 0 0.0 0.0 0.00 0.01 0.00 1006.1
20260509100100 0 0.0 0.0 0.00 0.01 0.00 1006.0
20260509094556 0 0.0 0.0 0.00 0.01 0.00 1006.1
20260509093051 0 0.0 0.0 0.00 0.01 0.00 1006.1
20260509091546 0 0.0 0.0 0.00 0.01 0.00 1006.0
20260509090040 0 0.0 0.0 0.00 0.01 0.00 1006.1
20260509084538 0 0.0 0.0 0.00 0.01 0.00 1006.1
20260509083037 0 0.0 0.0 0.00 0.01 0.00 1006.2
20260509081529 0 0.0 0.0 0.00 0.01 0.00 1006.3
20260509080033 0 0.0 0.0 0.00 0.01 0.00 1006.3
20260509074516 0 0.0 0.0 0.00 0.01 0.00 1006.3
20260509073011 0 0.0 0.0 0.00 0.01 0.00 1006.5
20260509071507 0 0.0 0.0 0.00 0.01 0.00 1006.6
20260509070002 0 0.0 0.0 0.00 0.01 0.00 1006.7
20260509064556 0 0.0 0.0 0.00 0.01 0.00 1006.9
20260509063052 0 0.0 0.0 0.00 0.01 0.00 1007.0
20260509061603 0 0.0 0.0 0.00 0.01 0.00 1007.2
20260509060101 0 0.0 0.0 0.00 0.01 0.00 1007.6
20260509054508 0 0.0 0.0 0.00 0.01 0.00 1007.8
20260509053005 0 0.0 0.0 0.00 0.01 0.00 1007.9
20260509051559 0 0.0 0.0 0.00 0.01 0.00 1008.1
20260509050119 0 0.0 0.0 0.00 0.01 0.00 1008.0
20260509044558 0 0.0 0.0 0.00 0.01 0.00 1008.2
20260509043047 45 146 1.0 4.0 0.00 0.01 0.00 65 1008.3
20260509041545 45 187 1.0 3.0 0.00 0.01 0.00 64 1008.6
20260509040043 45 162 1.0 3.0 0.00 0.01 0.00 63 1008.6
20260509034544 45 200 2.0 4.0 0.00 0.01 0.00 61 1008.7
20260509033043 45 166 1.0 4.0 0.00 0.01 0.00 62 1008.8
20260509031546 45 209 1.0 3.0 0.00 0.01 0.00 63 1009.0
20260509030040 45 205 1.0 2.0 0.00 0.01 0.00 61 1009.0
20260509024535 45 200 1.0 3.0 0.00 0.01 0.00 59 1009.2
20260509023038 45 203 1.0 3.0 0.00 0.01 0.00 60 1009.2
20260509021502 45 141 1.0 3.0 0.00 0.01 0.00 57 1009.2
20260509020100 45 189 0.0 1.0 0.00 0.07 0.00 57 1009.1
20260509014554 45 205 0.0 1.0 0.00 0.07 0.00 58 1008.9
20260509013059 46 205 0.0 0.0 0.00 0.07 0.00 56 1008.8
20260509011549 47 205 0.0 0.0 0.00 0.07 0.00 54 1008.7
20260509010047 48 205 0.0 2.0 0.00 0.08 0.00 47 1008.8
20260509004541 49 212 0.0 2.0 0.00 0.08 0.00 45 1008.7
20260509003045 51 209 1.0 3.0 0.00 0.08 0.00 40 1008.8
20260509001532 52 214 1.0 4.0 0.00 0.08 0.00 39 1008.7
20260509000036 52 212 1.0 3.0 0.00 0.31 0.00 37 1008.4
20260508234600 53 197 2.0 6.0 0.00 0.31 0.00 35 1008.4
20260508233056 53 203 2.0 6.0 0.00 0.31 0.00 37 1008.4
20260508231548 54 225 2.0 6.0 0.00 0.31 0.00 41 1008.4
20260508230050 54 215 3.0 8.0 0.00 0.39 0.00 41 1008.4
20260508224545 54 178 3.0 8.0 0.00 0.39 0.00 42 1008.3
20260508223041 54 207 3.0 8.0 0.00 0.39 0.00 42 1008.4
20260508221535 55 213 4.0 8.0 0.00 0.39 0.00 43 1008.4
20260508220031 55 142 3.0 7.0 0.00 0.39 0.00 44 1008.4
20260508214527 55 234 3.0 9.0 0.00 0.39 0.00 44 1008.5
20260508213025 55 224 3.0 7.0 0.00 0.39 0.00 44 1008.5
20260508211521 55 252 1.0 6.0 0.00 0.39 0.00 44 1008.6